Regional Weather Roundup
Issued by NWS

Home | Current Version | Previous Version | Graphics & Text | Print | Product List | Glossary On
Versions: 1 2 3 4 5 6 7 8 9 10 11 12 13 14 15 16 17 18 19 20 21 22 23 24 25 26 27 28 29 30 31 32 33 34 35 36 37 38 39 40 41 42 43 44 45 46 47 48 49 50
000
ASUS43 KLMK 191702
RWRKY
KENTUCKY REGIONAL WEATHER ROUNDUP
NATIONAL WEATHER SERVICE LOUISVILLE KY
100 PM EDT SAT APR 19 2014

NOTE "FAIR" INDICATES FEW OR NO CLOUDS BELOW 12,000 FEET
WITH NO SIGNIFICANT WEATHER AND/OR OBSTRUCTIONS TO VISIBILITY.

KYZ001>023-026-027-061>063-070>075-191800-
WESTERN AND SOUTH CENTRAL KENTUCKY

CITY           SKY/WX    TMP DP  RH WIND       PRES   REMARKS
PADUCAH        SUNNY     75  42  30 NE9       30.23F
HENDERSON      SUNNY     68  45  42 NE12      30.25F
OWENSBORO      SUNNY     70  42  36 NE9       30.26F
HOPKINSVILLE   SUNNY     72  41  33 NE14      30.22F
BOWLING GREEN  SUNNY     72  40  31 NE16      30.22F
GLASGOW        NOT AVBL
$$

KYZ024-025-028>034-038-045-046-053-191800-
NORTH CENTRAL KENTUCKY

CITY           SKY/WX    TMP DP  RH WIND       PRES   REMARKS
LOUISVILLE/SDF MOSUNNY   71  41  33 E13       30.26F
LOUISVILLE/LOU SUNNY     72  42  34 NE9       30.27F
FORT KNOX      SUNNY     70  40  33 NE13G20   30.24F
$$

KYZ035>037-039>044-047>052-055>060-089>105-191800-
NORTHEAST KENTUCKY

CITY           SKY/WX    TMP DP  RH WIND       PRES   REMARKS
LEXINGTON      SUNNY     69  42  37 NE17      30.26F
COVINGTON      SUNNY     66  40  38 E14       30.30F
FRANKFORT      SUNNY     69  41  36 NE10G20   30.26F
$$

KYZ054-064>069-076>088-106>120-191800-
SOUTHEAST KENTUCKY

CITY           SKY/WX    TMP DP  RH WIND       PRES   REMARKS
JACKSON        SUNNY     71  35  26 VRB7      30.22F
LONDON         MOSUNNY   71  35  26 NE13      30.20F
SOMERSET       NOT AVBL
MIDDLESBORO    PTSUNNY   70  37  30 NE9G17    30.18R
MONTICELLO     MOSUNNY   71  41  33 NE17G24   30.22F
$$




USA.gov is the U.S. government's official web portal to all federal, state and local government web resources and services.